Regional Weather Roundup
Issued by NWS

Home | Current Version | Previous Version | Graphics & Text | Print | Product List | Glossary On
Versions: 1 2 3 4 5 6 7 8 9 10 11 12 13 14 15 16 17 18 19 20 21 22 23 24 25 26 27 28
000
ASUS45 KCYS 240310
RWRWY

WYOMING REGIONAL WEATHER ROUNDUP
NATIONAL WEATHER SERVICE CHEYENNE WY
900 PM MDT WED APR 23 2014

NOTE:  "FAIR" INDICATES FEW OR NO CLOUDS BELOW 12,000 FEET
WITH NO SIGNIFICANT WEATHER AND/OR OBSTRUCTIONS TO VISIBILITY.

WYZ001-240400-
YELLOWSTONE NATIONAL PARK

CITY           SKY/WX    TMP DP  RH WIND       PRES   REMARKS
LK YELLOWSTONE   N/A     26  20  77 W8        29.93R WCI  18
W YELLOWSTONE  NOT AVBL

$$
WYZ002>013-054>058-071-098>099-240400-
NORTHERN WYOMING

CITY           SKY/WX    TMP DP  RH WIND       PRES   REMARKS
JACKSON          N/A     30  30 100 SW6       29.99R WCI  24
CODY           PTCLDY    39  21  48 W7G16     29.87R WCI  34
GREYBULL       PTCLDY    47  15  27 W13       29.84R
WORLAND        CLEAR     46   8  21 NW12      29.85R
SHERIDAN         N/A     34   9  35 W9          N/A  WCI  26
BUFFALO        PTCLDY    40  22  48 W7        29.85R
GILLETTE       MOCLDY    38  24  57 W6        29.82R WCI  33
HULETT         FAIR      45  27  49 SW7       29.81
NEWCASTLE      FAIR      45  28  53 N6        29.82

$$
WYZ014>020-022>026-101>103-240400-
CENTRAL WYOMING

CITY           SKY/WX    TMP DP  RH WIND       PRES   REMARKS
BIG PINEY      PTCLDY    28  16  60 N6        30.02R WCI  22
PINEDALE       PTCLDY    30  19  64 W6        30.02R WCI  24
DUBOIS         FAIR      30  18  59 W23G32    29.90S WCI  17
LANDER         CLEAR     38  12  34 W9        29.93R WCI  31
RIVERTON       CLEAR     40   7  25 W13       29.93R WCI  32
CASPER         PTCLDY    38  23  55 NW13      29.88R WCI  30
DOUGLAS        CLOUDY    44  30  57 NW7       29.85R

$$
WYZ021-027>030-104>119-240400-
SOUTHERN WYOMING

CITY           SKY/WX    TMP DP  RH WIND       PRES   REMARKS
EVANSTON       CLEAR     31  16  54 W10       30.06R WCI  22
KEMMERER       CLEAR     30  19  64 W7        30.04R WCI  23
FORT BRIDGER   FAIR      33  18  53 W10       30.08R WCI  25
ROCK SPRINGS   CLEAR     36  11  35 W16       30.03R WCI  26
DIXON          FAIR      36  13  38 W9        30.03R WCI  29
RAWLINS        CLEAR     37   2  22 W21G29    29.97R WCI  26
SARATOGA       FAIR      32   7  34 W9        29.98R WCI  24
LARAMIE        MOCLDY    36   6  28 W29G36    29.87R WCI  23
CHEYENNE       CLOUDY    45   7  21 NW20G40   29.86R
TORRINGTON     CLOUDY    50  32  50 N17       29.80R
PINE BLUFFS    CLOUDY    48  10  21 NW17      29.86R

$$



USA.gov is the U.S. government's official web portal to all federal, state and local government web resources and services.